BAW791G ESGG-EGLL

Flight info

Callsign BAW791G
Flight time N/A
Altitude 38000
Route VADIN3J VADIN DCT LONAM DCT BINBO DCT AKOKO N866 BUKUT P7 BARMI BARMI1H
Aircraft A319/M-SDE3FGIJ1KRWXY/LB1

Departure

Time N/A
Airport Göteborg Landvetter Airport (ESGG)

Arrival

Time 2026-04-30 20:56
Airport London Heathrow Airport (EGLL)
Time Latitude Longitude Altitude Speed Heading
2026-04-30 20:00 54.04486 4.35745 38371 ft 435 kts 230°
2026-04-30 20:00 54.00611 4.27852 38377 ft 435 kts 229°
2026-04-30 20:01 53.94779 4.16061 38382 ft 434 kts 229°
2026-04-30 20:01 53.90903 4.08230 38385 ft 433 kts 229°
2026-04-30 20:02 53.85121 3.96598 38366 ft 432 kts 228°
2026-04-30 20:03 53.78411 3.86562 38358 ft 429 kts 218°
2026-04-30 20:03 53.73787 3.80151 38351 ft 429 kts 218°
2026-04-30 20:04 53.69163 3.73746 38350 ft 430 kts 218°
2026-04-30 20:05 53.62208 3.64196 38350 ft 430 kts 217°
2026-04-30 20:05 53.55250 3.54667 38360 ft 429 kts 217°
2026-04-30 20:06 53.50628 3.48339 38349 ft 429 kts 217°
2026-04-30 20:06 53.46027 3.42078 38345 ft 428 kts 217°
2026-04-30 20:07 53.41387 3.35825 38339 ft 427 kts 215°
2026-04-30 20:08 53.33644 3.28599 38326 ft 425 kts 206°
2026-04-30 20:08 53.28372 3.24107 38290 ft 425 kts 206°
2026-04-30 20:09 53.23098 3.19610 38296 ft 425 kts 206°
2026-04-30 20:09 53.15181 3.12912 38291 ft 425 kts 205°
2026-04-30 20:10 53.07252 3.06234 38286 ft 425 kts 205°
2026-04-30 20:11 52.99332 2.99596 38325 ft 425 kts 205°
2026-04-30 20:11 52.94077 2.95205 38318 ft 425 kts 205°
2026-04-30 20:12 52.86157 2.88600 38310 ft 425 kts 205°
2026-04-30 20:13 52.80872 2.84211 38304 ft 425 kts 205°
2026-04-30 20:13 52.75589 2.79847 38293 ft 425 kts 205°
2026-04-30 20:14 52.70298 2.75478 38292 ft 425 kts 205°
2026-04-30 20:14 52.65010 2.71112 38291 ft 425 kts 205°
2026-04-30 20:15 52.59716 2.66753 38299 ft 426 kts 205°
2026-04-30 20:15 52.54412 2.62414 38303 ft 426 kts 205°
2026-04-30 20:16 52.49111 2.58097 38289 ft 425 kts 205°
2026-04-30 20:16 52.43805 2.53789 38288 ft 425 kts 204°
2026-04-30 20:17 52.38501 2.49471 38284 ft 425 kts 204°
2026-04-30 20:17 52.33198 2.45160 38284 ft 425 kts 205°
2026-04-30 20:18 52.27907 2.40890 38281 ft 425 kts 205°
2026-04-30 20:18 52.22589 2.36615 38273 ft 426 kts 204°
2026-04-30 20:19 52.17272 2.32338 38273 ft 426 kts 205°
2026-04-30 20:19 52.14637 2.30225 37851 ft 431 kts 204°
2026-04-30 20:19 52.11987 2.27869 37219 ft 437 kts 211°
2026-04-30 20:19 52.09556 2.24836 36459 ft 446 kts 220°
2026-04-30 20:20 52.07408 2.21124 35648 ft 456 kts 226°
2026-04-30 20:20 52.05317 2.17209 35094 ft 457 kts 226°
2026-04-30 20:20 52.03237 2.13329 34396 ft 456 kts 226°
2026-04-30 20:20 52.01133 2.09429 33395 ft 459 kts 226°
2026-04-30 20:21 51.99018 2.05529 32502 ft 460 kts 226°
2026-04-30 20:21 51.96902 2.01641 31671 ft 459 kts 225°
2026-04-30 20:21 51.94804 1.97789 31085 ft 452 kts 226°
2026-04-30 20:21 51.92727 1.93972 30485 ft 451 kts 225°
2026-04-30 20:22 51.90643 1.90149 29805 ft 451 kts 225°
2026-04-30 20:22 51.88574 1.86356 29282 ft 447 kts 225°
2026-04-30 20:22 51.86545 1.82637 28751 ft 444 kts 225°
2026-04-30 20:22 51.84479 1.78856 28035 ft 443 kts 225°
2026-04-30 20:23 51.82475 1.75201 27695 ft 436 kts 225°
2026-04-30 20:23 51.80478 1.71567 26902 ft 430 kts 225°
2026-04-30 20:23 51.78507 1.67987 26250 ft 421 kts 225°
2026-04-30 20:23 51.76674 1.64317 25716 ft 422 kts 233°
2026-04-30 20:24 51.75297 1.60126 25178 ft 425 kts 245°
2026-04-30 20:24 51.74449 1.55538 24528 ft 430 kts 257°
2026-04-30 20:24 51.74086 1.50721 23899 ft 433 kts 262°
2026-04-30 20:24 51.73786 1.45932 23411 ft 426 kts 262°
2026-04-30 20:25 51.73183 1.36503 21936 ft 420 kts 262°
2026-04-30 20:25 51.72884 1.31915 21680 ft 401 kts 261°
2026-04-30 20:26 51.72322 1.23376 21154 ft 368 kts 261°
2026-04-30 20:26 51.71779 1.15296 20033 ft 357 kts 261°
2026-04-30 20:26 51.71510 1.11341 19447 ft 354 kts 261°
2026-04-30 20:27 51.70975 1.03526 18269 ft 347 kts 261°
2026-04-30 20:27 51.70930 0.95883 17000 ft 344 kts 276°
2026-04-30 20:28 51.71945 0.88374 15754 ft 341 kts 284°
2026-04-30 20:28 51.73425 0.81146 14584 ft 337 kts 287°
2026-04-30 20:29 51.73855 0.73823 13479 ft 328 kts 262°
2026-04-30 20:30 51.73263 0.62902 12472 ft 323 kts 261°
2026-04-30 20:30 51.72693 0.52296 11782 ft 309 kts 261°
2026-04-30 20:31 51.72160 0.42081 11216 ft 297 kts 261°
2026-04-30 20:32 51.71636 0.32416 10848 ft 279 kts 255°
2026-04-30 20:32 51.69917 0.27160 10608 ft 260 kts 230°
2026-04-30 20:33 51.68902 0.24853 10491 ft 257 kts 230°
2026-04-30 20:33 51.66827 0.20178 10155 ft 254 kts 230°
2026-04-30 20:33 51.65798 0.17864 9971 ft 253 kts 230°
2026-04-30 20:34 51.63747 0.13328 9576 ft 250 kts 226°
2026-04-30 20:34 51.60765 0.11242 9238 ft 238 kts 182°
2026-04-30 20:35 51.59120 0.11039 9216 ft 238 kts 181°
2026-04-30 20:35 51.57653 0.10883 9219 ft 238 kts 181°
2026-04-30 20:35 51.54513 0.09337 9219 ft 249 kts 221°
2026-04-30 20:36 51.53622 0.06936 9220 ft 257 kts 252°
2026-04-30 20:36 51.53539 0.04064 9224 ft 263 kts 274°
2026-04-30 20:36 51.54059 -0.01776 9246 ft 263 kts 276°
2026-04-30 20:37 51.54342 -0.04674 9243 ft 262 kts 276°
2026-04-30 20:37 51.54628 -0.07560 9245 ft 262 kts 276°
2026-04-30 20:37 51.54916 -0.10448 9248 ft 262 kts 276°
2026-04-30 20:37 51.55205 -0.13332 9252 ft 261 kts 276°
2026-04-30 20:38 51.55493 -0.16210 9217 ft 262 kts 276°
2026-04-30 20:38 51.55784 -0.19103 9216 ft 262 kts 276°
2026-04-30 20:38 51.56071 -0.21954 9217 ft 262 kts 276°
2026-04-30 20:39 51.56651 -0.27717 9219 ft 262 kts 276°
2026-04-30 20:39 51.56941 -0.30604 9219 ft 262 kts 276°
2026-04-30 20:39 51.57230 -0.33493 9220 ft 262 kts 276°
2026-04-30 20:40 51.57812 -0.39245 9222 ft 262 kts 276°
2026-04-30 20:40 51.58107 -0.42133 9219 ft 262 kts 276°
2026-04-30 20:40 51.58404 -0.45027 9219 ft 262 kts 276°
2026-04-30 20:41 51.58994 -0.50825 9218 ft 262 kts 276°
2026-04-30 20:41 51.59287 -0.53717 9220 ft 263 kts 276°
2026-04-30 20:41 51.59579 -0.56588 9218 ft 263 kts 276°
2026-04-30 20:41 51.59872 -0.59485 9217 ft 263 kts 276°
2026-04-30 20:42 51.60166 -0.62391 9216 ft 263 kts 276°
2026-04-30 20:42 51.60458 -0.65288 9216 ft 262 kts 276°
2026-04-30 20:42 51.61034 -0.70969 9017 ft 248 kts 276°
2026-04-30 20:43 51.61216 -0.72753 8930 ft 240 kts 276°
2026-04-30 20:43 51.61482 -0.75343 8807 ft 229 kts 276°
2026-04-30 20:43 51.61744 -0.77834 8683 ft 223 kts 276°
2026-04-30 20:44 51.62334 -0.83404 8267 ft 214 kts 276°
2026-04-30 20:44 51.62580 -0.85753 7937 ft 212 kts 276°
2026-04-30 20:44 51.62972 -0.89511 7416 ft 211 kts 276°
2026-04-30 20:45 51.63067 -0.94090 7189 ft 199 kts 240°
2026-04-30 20:45 51.62179 -0.95674 6928 ft 189 kts 203°
2026-04-30 20:45 51.60922 -0.96187 6535 ft 187 kts 184°
2026-04-30 20:46 51.57062 -0.96503 5510 ft 183 kts 181°
2026-04-30 20:46 51.55796 -0.96580 5191 ft 181 kts 181°
2026-04-30 20:47 51.53289 -0.96742 5006 ft 181 kts 181°
2026-04-30 20:47 51.52031 -0.96822 5008 ft 181 kts 181°
2026-04-30 20:48 51.49640 -0.96142 4911 ft 179 kts 139°
2026-04-30 20:48 51.48846 -0.94591 4627 ft 181 kts 128°
2026-04-30 20:48 51.48146 -0.92916 4426 ft 180 kts 126°
2026-04-30 20:48 51.47467 -0.91251 4225 ft 177 kts 126°
2026-04-30 20:49 51.46799 -0.89610 4077 ft 174 kts 126°
2026-04-30 20:49 51.46315 -0.87889 4064 ft 164 kts 107°
2026-04-30 20:49 51.46336 -0.86079 4025 ft 165 kts 82°
2026-04-30 20:50 51.47099 -0.82585 4020 ft 167 kts 76°
2026-04-30 20:50 51.47454 -0.80820 3943 ft 164 kts 89°
2026-04-30 20:50 51.47540 -0.79032 3786 ft 159 kts 94°
2026-04-30 20:50 51.47578 -0.77268 3595 ft 157 kts 96°
2026-04-30 20:51 51.47600 -0.75528 3393 ft 155 kts 96°
2026-04-30 20:51 51.47627 -0.72133 2990 ft 151 kts 97°
2026-04-30 20:51 51.47638 -0.70459 2797 ft 150 kts 97°
2026-04-30 20:52 51.47648 -0.68794 2594 ft 149 kts 96°
2026-04-30 20:52 51.47657 -0.67139 2397 ft 148 kts 97°
2026-04-30 20:52 51.47675 -0.63864 2010 ft 146 kts 96°
2026-04-30 20:53 51.47684 -0.62237 1811 ft 146 kts 96°
2026-04-30 20:53 51.47692 -0.60601 1614 ft 147 kts 95°
2026-04-30 20:53 51.47701 -0.58966 1414 ft 146 kts 95°
2026-04-30 20:54 51.47717 -0.55873 1035 ft 130 kts 91°
2026-04-30 20:54 51.47723 -0.54425 859 ft 131 kts 91°
2026-04-30 20:54 51.47729 -0.52960 682 ft 132 kts 89°
2026-04-30 20:55 51.47742 -0.50011 314 ft 132 kts 89°
2026-04-30 20:55 51.47752 -0.48536 120 ft 131 kts 87°
2026-04-30 20:55 51.47757 -0.47320 86 ft 72 kts 90°
2026-04-30 20:56 51.47745 -0.46201 88 ft 43 kts 105°
2026-04-30 20:56 51.47608 -0.46069 89 ft 14 kts 168°
2026-04-30 20:56 51.47590 -0.46360 89 ft 19 kts 269°
2026-04-30 20:57 51.47589 -0.46595 90 ft 24 kts 270°
2026-04-30 20:57 51.47586 -0.46825 89 ft 17 kts 263°
2026-04-30 20:57 51.47491 -0.46917 87 ft 17 kts 168°
2026-04-30 20:58 51.47219 -0.46867 85 ft 20 kts 181°
2026-04-30 20:58 51.47079 -0.46867 85 ft 20 kts 180°
2026-04-30 20:58 51.46952 -0.46866 85 ft 16 kts 179°
2026-04-30 20:58 51.46857 -0.46866 85 ft 12 kts 180°
2026-04-30 20:59 51.46749 -0.46749 85 ft 11 kts 90°
2026-04-30 20:59 51.46749 -0.46624 85 ft 12 kts 90°
2026-04-30 21:00 51.46749 -0.46302 85 ft 16 kts 90°
2026-04-30 21:00 51.46788 -0.45989 85 ft 13 kts 14°
2026-04-30 21:01 51.46908 -0.46031 85 ft 9 kts 31°
2026-04-30 21:01 51.46936 -0.45972 86 ft 0 kts 57°